Location: Maiden_LMO
(35.5760°N, 81.2120°W)
Time: 23:33:35
(UTC-04:00)

Daily predictions for brighter satellites

Satellite Brightness Start Highest point End
(mag) Time Altitude Azimuth Time Altitude Azimuth Time Altitude Azimuth
Envisat 3.3 21:04:08 10° SSE 21:09:04 53° ENE 21:14:00 10° N
H-2A R/B 4.4 21:07:12 10° SSW 21:10:40 35° W 21:14:11 10° NNW
Meteor 1-29 3.9 21:10:02 10° NE 21:13:02 28° E 21:16:02 10° SSE
SL-8 R/B 3.8 21:09:56 10° NW 21:14:43 73° NE 21:19:29 10° ESE
USA 186 1.3 21:15:17 10° S 21:17:42 66° W 21:20:00 10° NNW
NOSS 0 Rocket 4.0 21:12:20 10° NNW 21:18:36 88° ENE 21:24:49 10° SSE
Cosmos 1140 Rocket 3.5 21:14:39 10° S 21:19:44 62° ESE 21:24:50 10° NNE
Cosmos 2082 3.7 21:14:09 10° SSW 21:19:45 89° ESE 21:25:25 10° NNE
Cosmos 2297 Rocket 2.3 21:20:45 10° SSW 21:26:23 85° WNW 21:32:05 10° NNE
Meteor 2-15 4.4 21:20:40 10° S 21:26:38 66° E 21:32:38 10° NNE
Resurs 01 Rocket 2.8 21:23:48 10° S 21:27:58 42° W 21:32:09 10° NNW
Cosmos 1939 Rocket 2.9 21:28:04 10° SSE 21:32:00 69° ENE 21:36:02 10° N
H-2A ROCKET BODY 3.4 21:31:14 10° SSE 21:35:19 - ESE 21:32:27 11° SE
Cosmos 1867 4.0 21:29:10 10° S 21:34:08 38° ESE 21:39:09 10° NE
Cosmos 1023 Rocket 4.5 21:29:50 10° SSW 21:35:00 89° ESE 21:40:08 10° NNE
Cosmos 1340 Rocket 2.7 21:38:45 10° S 21:42:42 71° E 21:46:45 10° NNE
Spot 1 3.9 21:42:30 10° SSE 21:46:34 86° ENE 21:50:44 10° NNW
ATLAS 5 CENTAUR R/B 1.6 21:42:25 10° SSW 21:46:58 77° ESE 21:51:53 10° NE
Cosmos 1980 4.1 21:42:11 10° NNW 21:47:48 65° WSW 21:53:24 10° S
SJ-11-01 4.5 21:45:41 10° S 21:50:24 75° WSW 21:55:10 10° NNW
Cosmos 1850 Rocket 3.9 21:46:16 10° S 21:51:23 69° ESE 21:56:33 10° NNE
SPOT 5 4.2 21:49:06 15° ESE 21:51:59 26° ENE 21:56:03 10° NNE
Cosmos 2084 3.1 21:49:20 10° SSW 21:53:23 67° ESE 21:57:15 10° NE
Cosmos 614 Rocket 4.2 21:48:43 10° SSW 21:53:55 75° WNW 21:59:08 10° NNE
YAOGAN 6 2.5 21:51:00 13° SSE 21:54:07 85° E 21:57:47 10° N
Lacrosse 5 4.1 21:51:18 10° N 21:54:16 15° NNE 21:57:16 10° ENE
Helios 1A 3.4 21:52:34 10° S 21:56:39 59° WSW 22:00:45 10° NNW
Cosmos 1605 Rocket 4.3 21:50:53 10° NNW 21:57:06 70° W 22:03:23 10° S
CZ-4B DEB 2.8 21:54:45 15° S 21:57:07 69° WSW 22:00:06 10° NNW
Cosmos 2237 Rocket 2.7 21:52:40 10° NNW 21:58:10 57° WSW 22:03:39 10° S
Cosmos 1726 4.2 21:56:36 10° NE 21:58:12 12° ENE 21:58:49 12° E
Helios 1B rocket 3.4 21:54:36 10° N 21:58:37 50° WNW 22:02:36 10° SSW
USA 234 3.2 21:54:16 10° NE 22:00:49 70° SE 22:07:19 10° SW
CZ-3B R/B 3.3 21:58:58 10° SW 22:01:28 79° SE 22:08:39 10° NE
Cosmos 1842 Rocket 4.4 21:59:00 10° NNW 22:03:14 48° W 22:07:24 10° SSW
H-2A R/B 3.4 22:00:47 17° ESE 22:03:36 25° ENE 22:07:57 10° NNE
ERS-1 Rocket 3.0 22:01:42 17° SSE 22:05:31 69° ENE 22:10:32 10° N
Atlas Centaur 2 1.8 22:02:19 10° WSW 22:05:35 33° S 22:06:40 26° SSE
Cosmos 2227 Rocket 4.4 22:05:13 10° WSW 22:10:02 28° WNW 22:14:52 10° N
Sakura Rocket 4.5 22:02:51 10° WSW 22:10:27 44° S 22:14:11 21° ESE
Cosmos 1802 Rocket 4.3 22:06:36 10° N 22:12:30 48° E 22:16:08 23° SE
Cosmos 1818 3.8 22:07:50 10° NNW 22:13:11 56° ENE 22:16:16 25° SE
Cosmos 1674 2.5 22:12:38 18° S 22:15:24 82° E 22:19:09 10° N
Cosmos 1741 Rocket 4.3 22:10:21 10° SSW 22:15:39 72° WNW 22:20:59 10° NNE
Cosmos 1908 3.2 22:14:33 10° N 22:18:25 66° E 22:20:02 32° SSE
SL-16 R/B 2.2 22:16:02 10° NNW 22:21:43 90° ENE 22:25:09 25° SSE
ARGOS 3.3 22:20:18 25° SE 22:23:23 62° ENE 22:28:44 10° N
Meteor 2-17 Rocket 4.4 22:18:56 10° N 22:25:06 78° E 22:29:09 23° SSE
Cosmos 1408 Rocket 3.5 22:23:35 29° SSE 22:25:38 61° E 22:29:53 10° NNE
MetOp-A 4.1 22:22:19 23° SSE 22:25:45 85° ENE 22:31:08 10° NNW
KORONAS-FOTON 3.7 22:24:13 31° S 22:25:54 71° E 22:29:41 10° NNE
NOSS 3-4 (A) 4.2 22:21:24 10° NW 22:28:26 61° WSW 22:33:42 21° S
NOSS 3-4 (C) 4.2 22:21:29 10° NW 22:28:32 62° WSW 22:33:47 21° S
Cosmos 1356 Rocket 3.6 22:27:26 15° SSW 22:30:52 71° W 22:35:08 10° N
Cosmos 1076 Rocket 3.8 22:27:30 14° SSW 22:31:14 67° W 22:35:35 10° N
Tiangong 1 3.5 22:32:12 10° WNW 22:34:22 20° N 22:36:30 10° NE
Terra 3.2 22:36:22 22° E 22:37:26 24° ENE 22:41:13 10° NNE
DMSP B5D2-2 4.5 22:33:54 10° NNE 22:38:51 42° E 22:40:08 36° SE
Cosmos 2016 Rocket 3.9 22:38:17 10° N 22:44:33 75° E 22:47:32 33° SSE
Cosmos 1500 Rocket 4.4 22:45:14 33° E 22:45:17 33° E 22:49:17 10° NNE
Cosmos 2221 3.7 22:41:53 10° NNW 22:45:58 39° W 22:48:41 19° SSW
Cosmos 2208 Rocket 4.3 22:46:46 10° NNW 22:52:02 64° WSW 22:54:24 33° S
Cosmos 2227 4.3 22:46:58 10° SSW 22:52:42 76° WNW 22:58:26 10° NNE
Cosmos 332 Rocket 4.2 22:48:49 10° N 22:53:34 47° ENE 22:54:33 41° ESE
Cosmos 2151 3.9 22:54:01 32° ENE 22:54:01 32° ENE 22:57:27 10° NNE
CARTOSAT-1 4.4 22:55:32 34° E 22:55:49 34° ENE 22:59:44 10° N
SL-08 RB Rocket 3.8 22:56:03 44° S 22:57:26 73° WSW 23:02:02 10° NNW
Cosmos 1486 Rocket 4.1 22:57:03 47° SE 22:58:03 54° ESE 23:03:12 10° NNE
SPOT 1/Viking Rocket 3.4 22:56:35 44° SSE 22:58:16 88° ENE 23:03:27 10° NNW
RESURS DK-1 2.8 22:55:03 10° N 22:59:05 47° ENE 22:59:21 46° ENE
Cosmos 1766 Rocket 4.5 22:58:38 22° SW 23:01:06 45° W 23:05:17 10° N
Cosmos 1242 Rocket 4.0 22:58:08 10° NNW 23:01:31 33° W 23:02:31 28° SW
USA 245 3.8 23:03:34 39° WSW 23:03:44 40° W 23:07:14 10° NNW
Meteor 2-2 Rocket 4.2 22:59:28 10° N 23:05:17 82° E 23:07:11 45° SSE
EO 1 Delta rocket 3.8 23:04:01 48° S 23:05:20 81° W 23:09:58 10° N
Cosmos 2233 Rocket 4.3 23:03:59 10° N 23:09:59 49° E 23:11:20 42° ESE
Cosmos 841 Rocket 4.3 23:05:41 10° N 23:10:30 36° ENE 23:11:13 34° E
SL-14 R/B 3.4 23:10:43 64° WSW 23:11:05 70° W 23:15:03 10° N
Cosmos 1328 Rocket 3.3 23:08:14 10° N 23:12:35 89° ENE 23:12:50 80° SSE
Milstar 3 Cent rocket 4.3 23:04:24 10° W 23:12:37 45° S 23:18:44 32° SE
Cosmos 1763 Rocket 3.7 23:09:05 10° N 23:14:02 49° ENE 23:14:35 47° E
Cosmos 2228 Rocket 3.0 23:09:29 10° N 23:14:05 84° E 23:14:28 74° SSE
Cosmos 1515 Rocket 3.5 23:11:48 10° N 23:16:02 67° ENE 23:16:02 67° ENE
Cosmos 1328 4.1 23:15:50 57° WSW 23:16:16 61° W 23:20:16 10° N
H-2A R/B 2.6 23:17:20 46° ENE 23:17:20 46° ENE 23:21:17 10° N
Cosmos 1743 Rocket 3.6 23:16:55 61° SW 23:17:29 70° W 23:21:49 10° N
Cosmos 2263 Rocket 2.0 23:21:44 61° SE 23:22:17 65° ESE 23:27:49 10° NNE
Cosmos 1626 3.4 23:25:43 33° NE 23:25:43 33° NE 23:27:58 10° NNE
Cosmos 1151 Rocket 3.2 23:20:50 10° N 23:24:51 62° NE 23:24:51 62° NE
Cosmos 1300 3.2 23:21:31 10° NNW 23:25:00 55° WNW 23:25:00 55° WNW
Delta 2 Rocket 4.1 23:19:40 10° WSW 23:25:01 60° S 23:25:01 60° S
Cosmos 1447 Rocket 4.4 23:24:35 51° SSE 23:26:17 78° E 23:32:38 10° N
SPOT 5 4.3 23:28:20 24° SW 23:29:53 29° W 23:34:12 10° NW
SL-19 R/B 4.1 23:24:33 10° NNE 23:29:55 81° ESE 23:30:49 63° S
IGS 5A 3.6 23:33:58 70° NNW 23:33:58 70° NNW 23:37:42 10° NNW
Cosmos 1726 3.6 23:30:21 10° NNW 23:33:26 30° W 23:33:26 30° W
Meteor 2-10 4.5 23:30:52 10° NNW 23:36:24 62° W 23:37:39 50° SW
OAO 1 Rocket 4.3 23:31:09 10° W 23:36:32 86° S 23:36:51 79° ESE
Lacrosse 5 1.8 23:32:56 10° NW 23:38:00 76° NE 23:38:08 75° ENE
Meteor 2-12 Rocket 4.3 23:33:43 10° N 23:39:48 73° E 23:40:35 64° SE
H-2A R/B 3.2 23:41:25 31° SW 23:42:45 35° W 23:47:41 10° NNW
Cosmos 1503 Rocket 3.9 23:43:58 71° ENE 23:43:58 71° ENE 23:48:49 10° NNE
Cosmos 371 Rocket 3.4 23:39:41 10° NNW 23:44:22 63° W 23:44:22 63° W
Cosmos 1603 4.2 23:43:16 10° NW 23:48:39 47° WSW 23:49:18 45° SW
Cosmos 2285 Rocket 4.3 23:43:37 10° N 23:49:47 51° ENE 23:50:38 48° E
CZ-4C R/B 4.5 23:53:11 41° NNE 23:53:11 41° NNE 23:56:23 10° N
